Molniya-1

unknown
NORAD ID: 13890 Int'l Des: 1983-019 Owner: GUKOS Country: SU
MEOELLIPTICALHEO_ELLIPTICALSEMI_SYNCMOLNIYA

Über Molniya-1

Beschreibung wird geladen...

Live-Position

3D-Globus wird geladen...

Nächste Überflüge

Höhenverlauf

Altitude vs Time

uPlot chart will show altitude changes over time

Zweizeiliger Elementsatz

1 13890U 83019A 26060.13858831 -.00000056 00000-0 00000-0 0 9995
2 13890 62.5609 183.2726 7003274 273.9810 15.5140 2.00089247313659
Epoch: 1. März 2026 • Age: 91 hours

Aktueller Status

Höhe 35845.8 km
Geschwindigkeit 1.98 km/s
Subsatellitenpunkt 60.90°N, 164.87°E
Startdatum 16. März 1983
Alter 42.9 years
Typ other

Technische Details

Klassifizierung Payload
Masse 1650.00 kg
Trockenmasse 1620.00 kg
Gesamtmasse 1650.00 kg
Länge 4.40 m
Durchmesser 1.40 m
Spannweite 8.60 m
Form Cyl + 6 Pan
Hersteller NPOPM
Bus-Typ Molniya-1
Phasenstatus In Orbit
Besitzer/Staat GUKOS/SU

Große Konstellationen

Loading constellations...